Elko, NV

2:17 AM PDT on October 01, 2016 (GMT -0700)
Elko Regional

Weather History for KEKO - July, 2013

Change the Weather History Date:

Monday, July 1, 2013

  Actual Average Record
Temperature  
Mean Temperature 82 °F 67 °F  
Max Temperature 104 °F 87 °F 104 °F (2013)
Min Temperature 60 °F 48 °F 33 °F (1911)
Degree Days  
Heating Degree Days 0 1  
Month to date heating degree days 0 1  
Since 1 June heating degree days 63 132  
Since 1 July heating degree days 0 1  
Cooling Degree Days 17 4  
Month to date cooling degree days 17 4  
Year to date cooling degree days 144 55  
Since 1 June cooling degree days 140 51  
Growing Degree Days 32 (Base 50)    
Moisture  
Dew Point 39 °F    
Average Humidity 27    
Maximum Humidity 44    
Minimum Humidity 9    
Precipitation  
Precipitation 0.00 in 0.01 in 0.96 in (1950)
Month to date precipitation 0.00 0.01  
Year to date precipitation 2.86 5.55  
Snow  
Snow 0.00 in 0.00 in 0.00 in (1888)
Month to date snowfall 0.0 0.0  
Since 1 June snowfall 0.0 0.0  
Since 1 July snowfall 0.0 0.0  
Snow Depth 0.00 in    
Sea Level Pressure  
Sea Level Pressure 29.92 in    
Wind  
Wind Speed 5 mph (East)    
Max Wind Speed 28 mph    
Max Gust Speed 33 mph    
Visibility 10 miles    
Events      
T = Trace of Precipitation, MM = Missing Value Source: NWS Daily Summary

Daily Weather History Graph

Daily Weather History Graph

Search for Another Location

Airport or City:

Trip Planner

Search our weather history database for the weather conditions in past years. The results will help you decide how hot, cold, wet, or windy it might be!

Date:

Astronomy

Jul. 01, 2013 Rise Set
Actual Time 5:15 AM PDT 8:18 PM PDT
Civil Twilight 4:42 AM PDT 8:51 PM PDT
Nautical Twilight 3:59 AM PDT 9:34 PM PDT
Astronomical Twilight 3:09 AM PDT 10:23 PM PDT
Moon 12:49 AM PDT 2:36 PM PDT
Length of Visible Light 16h 09m
Length of Day
15h 03m
Waning Crescent, 34% of the Moon is Illuminated
Jul 1
Waning Crescent
Jul 8
New
Jul 15
First Quarter
Jul 22
Full
Jul 29
Last Quarter

Hourly Weather History & Observations

Time (PDT) Temp. Dew Point Humidity Pressure Visibility Wind Dir Wind Speed Gust Speed Precip Events Conditions
12:56 AM 80.1 °F 41.0 °F 25% 29.88 in 10.0 mi ENE 5.8 mph - N/A   Clear
1:56 AM 66.0 °F 42.1 °F 42% 29.90 in 10.0 mi SSW 3.5 mph - N/A   Clear
2:56 AM 64.0 °F 43.0 °F 46% 29.91 in 10.0 mi Calm Calm - N/A   Clear
3:56 AM 66.0 °F 39.0 °F 37% 29.91 in 10.0 mi Calm Calm - N/A   Clear
4:56 AM 62.1 °F 39.9 °F 44% 29.94 in 10.0 mi Calm Calm - N/A   Clear
5:56 AM 63.0 °F 39.0 °F 41% 29.95 in 9.0 mi Calm Calm - N/A   Clear
6:56 AM 64.0 °F 41.0 °F 43% 29.98 in 10.0 mi Calm Calm - N/A   Clear
7:56 AM 75.0 °F 41.0 °F 29% 29.97 in 10.0 mi Calm Calm - N/A   Clear
8:56 AM 84.9 °F 42.1 °F 22% 29.94 in 10.0 mi NE 4.6 mph - N/A   Clear
9:56 AM 91.0 °F 41.0 °F 17% 29.94 in 10.0 mi ENE 3.5 mph - N/A   Clear
10:56 AM 96.1 °F 36.0 °F 12% 29.91 in 10.0 mi NE 4.6 mph - N/A   Clear
11:56 AM 99.0 °F 37.0 °F 12% 29.89 in 10.0 mi Calm Calm - N/A   Clear
12:56 PM 100.0 °F 36.0 °F 11% 29.88 in 10.0 mi Variable 4.6 mph - N/A   Clear
1:56 PM 100.9 °F 35.1 °F 10% 29.88 in 10.0 mi ESE 8.1 mph - N/A   Partly Cloudy
2:56 PM 102.0 °F 35.1 °F 10% 29.87 in 10.0 mi Calm Calm - N/A   Clear
3:56 PM 102.9 °F 34.0 °F 9% 29.84 in 10.0 mi East 8.1 mph 16.1 mph N/A   Partly Cloudy
4:56 PM 102.9 °F 35.1 °F 10% 29.84 in 10.0 mi South 4.6 mph - N/A   Clear
5:56 PM 100.0 °F 34.0 °F 10% 29.84 in 10.0 mi North 12.7 mph - N/A   Partly Cloudy
6:56 PM 95.0 °F 37.9 °F 14% 29.88 in 10.0 mi SSE 15.0 mph 24.2 mph N/A   Clear
7:35 PM 89.6 °F 42.8 °F 20% 30.13 in 10.0 mi WSW 23.0 mph 31.1 mph N/A   Clear
7:56 PM 90.0 °F 41.0 °F 18% 29.94 in 10.0 mi West 16.1 mph - N/A   Clear
8:56 PM 86.0 °F 44.1 °F 23% 29.95 in 10.0 mi South 8.1 mph - N/A   Clear
9:56 PM 86.0 °F 41.0 °F 20% 29.93 in 10.0 mi NNW 8.1 mph - N/A   Clear
10:56 PM 82.9 °F 41.0 °F 23% 29.95 in 10.0 mi East 3.5 mph - N/A   Clear
11:56 PM 81.0 °F 43.0 °F 26% 29.96 in 10.0 mi Calm Calm - N/A   Clear